weather.gov     
National Weather Service

Regional Weather Roundup
NWS Homepage
This page is being discontinued on March 12, 2014.
The same data is available at this site. Please update your bookmarks.
Thank you, and we apologize for the inconvenience.
Please send an email to SR-SRH.Webmaster@noaa.gov with any concerns.


Current Version
Previous Version:    01  02  03  04  05  06  07  08  09  10  11  12  13  14  15  16  17  18  19  20  21  22  23  24  25  26  27  28  29  30  
   31  32  33  34  35  36  37  38  39  40  41  42  43  44  45  46  47  48  49  50  51  52  53  54  55  56  
[Printable]
023
ASUS44 KJAN 230810
RWRMS

MISSISSIPPI HOURLY WEATHER ROUNDUP
NATIONAL WEATHER SERVICE JACKSON MS
300 AM CDT TUE SEP 23 2014

NOTE: "FAIR: INDICATES FEW OR NO CLOUDS BELOW 12,000 FEET WITH NO
SIGNIFICANT WEATHER AND/OR OBSTRUCTIONS TO VISIBILITY.

MSZ001>002-007>008-010>013-018>021-025>028-034>036-230900-
NORTHWEST MISSISSIPPI

CITY           SKY/WX    TMP DP  RH WIND       PRES   REMARKS
CLARKSDALE       N/A     55  52  88 NE8       30.20S
CLEVELAND      FAIR      57  54  89 NE6       30.17F
GREENWOOD      CLEAR     54  51  90 NE6       30.16S
GREENVILLE     CLEAR     58  52  80 NE6       30.16F
GRENADA        FAIR      57  50  77 NE7       30.18S
OLIVE BRANCH   CLEAR     54  54 100 NE6       30.21S
OXFORD         FAIR      52  48  87 E7        30.20F
TUNICA         SUNNY     52  46  82 N6        30.21F
$$

MSZ003>006-009-014>017-022>024-029>033-037>039-230900-
NORTHEAST MISSISSIPPI

CITY           SKY/WX    TMP DP  RH WIND       PRES   REMARKS
COLUMBUS AFB   CLEAR     55  51  87 N5        30.16S
CORINTH          N/A     52  48  87 CALM      30.20S
GOLDN TRIANGLE CLEAR     54  46  76 N8        30.16S
STARKVILLE     FAIR      54  52  94 CALM      30.16S
TUPELO         CLEAR     53  49  86 NE8       30.18F
$$

MSZ040-058-230900-
CENTRAL MISSISSIPPI

CITY           SKY/WX    TMP DP  RH WIND       PRES   REMARKS
JACKSON INTL   CLEAR     64  51  62 NE8       30.13R
JACKSON HAWKNS CLEAR     64  52  64 NE3       30.13S
MERIDIAN KEY   CLEAR     57  52  83 N5        30.12F
MERIDIAN NAS   CLEAR     58  51  78 N5        30.13F
RAYMOND        FAIR      55  50  82 CALM      30.13S
VICKSBURG      CLEAR     61  55  81 NE8       30.14S
$$

MSZ059>079-230900-
SOUTH MISSISSIPPI

CITY           SKY/WX    TMP DP  RH WIND       PRES   REMARKS
BROOKHAVEN     FAIR      61  54  77 N6        30.13S
COLUMBIA       FAIR      61  54  77 NE6       30.08F
HATTIESBURG    CLEAR     62  54  74 NW5       30.10S
MCCOMB         CLEAR     63  53  70 N5        30.10S
NATCHEZ        CLEAR     61  54  77 NE6       30.12F
PINE BELT      CLEAR    N/A N/A N/A N7        30.10S
$$

MSZ080>082-230900-
COASTAL MISSISSIPPI

CITY           SKY/WX    TMP DP  RH WIND       PRES   REMARKS
BILOXI         CLEAR     65  54  67 NE7       30.05S
PASCAGOULA     CLEAR     57  55  93 CALM      30.06S
GULFPORT       CLEAR     66  53  63 NE7       30.05S
$$




U.S. Dept. of Commerce
NOAA National Weather Service
1325 East West Highway
Silver Spring, MD 20910
E-mail: w-nws.webmaster@noaa.gov
Page last modified: May 16, 2007
NATIONAL WEATHER SERVICE: for Safety, for Work, for Fun - FOR LIFE